Regional Weather Roundup
Issued by NWS Northern Indiana

Home | Current Version | Previous Version | Graphics & Text | Print | Product List | Glossary On
Versions: 1 2 3 4 5 6 7 8 9 10 11 12 13 14 15 16 17 18 19 20 21 22 23 24 25 26 27 28 29 30 31 32 33 34 35 36 37 38 39 40 41 42 43 44 45 46 47 48 49 50
000
ASUS43 KIWX 222200
RWRIWX

KIWX WEATHER ROUNDUP
NATIONAL WEATHER SERVICE NORTHERN INDIANA
500 PM EST SAT NOV 22 2014

NOTE: "FAIR" INDICATES FEW OR NO CLOUDS BELOW 12,000 FEET WITH NO
SIGNIFICANT WEATHER AND/OR OBSTRUCTIONS TO VISIBILITY.

* THESE STATIONS ARE NOT UNDER NWS QUALITY CONTROL. THEY ALSO MAY NOT
  REPORT WEATHER SUCH AS PRECIPITATION OR FOG.

INZ001>027-222300-
NORTHERN INDIANA

CITY           SKY/WX    TMP DP  RH WIND       PRES   REMARKS
GARY*          CLOUDY    52  46  82 S8        29.89F
SOUTH BEND     LGT RAIN  45  44  97 S7        29.93F
ELKHART*       LGT RAIN  46  45  93 S6        29.94S
GOSHEN         CLOUDY    48  44  86 S14       29.94F
ANGOLA*        CLOUDY    46  37  71 SW13      29.95S
FORT WAYNE     MOCLDY    50  43  77 S14       29.99F
PERU/GRISSOM   CLOUDY    52  49  90 S15       29.97F

$$
INZ028>050-222300-
CENTRAL INDIANA

CITY           SKY/WX    TMP DP  RH WIND       PRES   REMARKS
LAFAYETTE      CLOUDY    54  44  69 SW12      29.98R
KOKOMO*        CLOUDY    52  43  71 SW20      29.99S
MUNCIE*        CLOUDY    54  41  61 SW12      30.02S
INDIANAPOLIS   CLOUDY    55  41  59 S14       30.03R

$$
MIZ043>046-050>051-056>058-064>065-071>073-077>080-222300-
SOUTHWEST LOWER MICHIGAN

CITY           SKY/WX    TMP DP  RH WIND       PRES   REMARKS
BATTLE CREEK   LGT RAIN  44  41  89 SW16      29.92R FOG
BENTON HARBOR  CLOUDY    46  44  93 S9        29.89F FOG
COLDWATER*     LGT RAIN  47  45  92 SW13      29.93S
HILLSDALE*     RAIN      47  46  95 SW9G18    29.94S
HOLLAND        CLOUDY    46  43  89 SW15G26   29.88S
GRAND RAPIDS   FOG       40  38  93 SW13      29.89R VSB 3/4
KALAMAZOO      CLOUDY    43  40  89 S13       29.92S FOG
STURGIS*       RAIN      45  43  93 S8        29.94R
THREE RIVERS*  LGT RAIN  45  42  92 SW8       29.94R

$$
OHZ001>008-015>018-024>025-222300-
NORTHWEST OHIO

CITY           SKY/WX    TMP DP  RH WIND       PRES   REMARKS
DEFIANCE       MOCLDY    50  42  74 SW13      29.98F
FINDLAY        CLOUDY    49  41  74 S14       30.02R
TOLEDO EXPRESS CLOUDY    48  42  80 SW10      29.97F
TOLEDO METCALF CLOUDY    49  41  74 S13       29.99S
LIMA           CLOUDY    51  40  65 S14G23    30.02F

$$
AND FOR LAKE MICHIGAN COASTAL AND OPEN LAKE BUOY OBSERVATIONS

STATION/POSITION TEMP    WIND        PRES    VSBY  WAVE
                 AIR SEA DIR/SP/G                  HT/PER
                 (F)     (DEG/KT/KT) (MB)    (MI)  (FT/S)
CALUMET HARBOR    49     190/  7/ 10 1010.8F
MICHIGAN CITY     48     160/ 15/ 21   N/A
SAINT JOSEPH      47     170/  8/ 16 1012.9S
SOUTH LAKE BUOY   44 42  200/ 17/ 21 1011.4F         4/ 6

$$
&&



USA.gov is the U.S. government's official web portal to all federal, state and local government web resources and services.